Location: Bushwick Junction
(40.7154°N, 73.9082°W)
Time: 01:16:05
(UTC+00:00)

Daily predictions for brighter satellites

Satellite Brightness Start Highest point End
(mag) Time Altitude Azimuth Time Altitude Azimuth Time Altitude Azimuth
Cosmos 1417 Rocket 4.5 00:26:19 10° S 00:32:29 73° E 00:38:38 10° N
Cosmos 2082 Rocket 4.3 00:34:18 10° NNE 00:36:20 12° NE 00:38:22 10° ENE
Cosmos 1606 3.4 00:33:05 10° SSW 00:36:48 58° W 00:40:33 10° N
Cosmos 1503 Rocket 4.0 00:32:21 10° S 00:37:28 73° ESE 00:42:41 10° NNE
Cosmos 1743 Rocket 4.0 00:33:16 10° NNW 00:37:36 67° W 00:41:56 10° S
CZ-2C R/B 4.3 00:32:36 10° N 00:37:38 40° WNW 00:42:44 10° SW
Helios 1A Rocket 3.3 00:34:17 10° S 00:38:23 69° WSW 00:42:32 10° NNW
CZ-4 R/B 4.2 00:40:01 10° SW 00:42:43 17° W 00:45:23 10° NW
Ariane Rocket 3.4 00:37:55 10° SE 00:42:45 48° ENE 00:47:37 10° N
USA 290 2.2 00:39:56 10° NNW 00:43:11 77° ENE 00:46:22 10° SSE
Cosmos 1500 Rocket 4.5 00:43:19 10° NNW 00:47:33 50° W 00:51:43 10° SSW
COSMOS 2406 4.5 00:45:29 10° N 00:50:15 27° NE 00:54:51 11° ESE
Intercosmos 25 Rocket 3.6 00:45:26 10° N 00:50:38 85° W 00:54:08 10° S
DELTA 2 R/B (1) 4.3 00:47:30 10° W 00:52:44 42° SSW 00:57:37 12° SE
Cosmos 1933 3.3 00:49:38 10° S 00:53:40 78° E 00:57:42 10° N
Resurs 1-3 3.8 00:50:27 10° SSE 00:54:42 54° ENE 00:58:59 10° N
Tianhe-1 2.9 00:53:44 10° S 00:55:32 14° SSE 00:56:12 14° SE
Cosmos 1437 3.6 00:54:19 12° SSE 00:56:26 24° E 00:58:49 10° NE
Cosmos 1666 Rocket 3.9 00:53:11 10° N 00:57:24 46° E 01:01:26 11° SSE
Meteor 1-20 Rocket 4.2 00:51:50 10° N 00:57:26 74° E 01:02:53 10° SSE
Cosmos 1844 Rocket 4.4 00:52:29 10° SW 00:57:38 38° WNW 01:02:50 10° N
IRS-1A Rocket 4.4 00:52:40 10° SSE 00:58:25 73° ENE 01:04:17 10° N
Cosmos 2278 Rocket 2.7 00:54:00 10° S 00:59:08 37° ESE 01:04:18 10° NE
Cosmos 1782 3.1 00:55:56 10° SSE 00:59:45 46° E 01:03:35 10° NNE
SJ 16-02 2.6 00:59:40 11° SSE 01:02:49 22° E 01:06:15 10° NE
Cosmos 1812 4.0 01:02:33 15° SE 01:04:40 22° E 01:07:43 10° NE
Sich 1 3.1 01:01:07 10° N 01:05:29 82° W 01:09:52 10° S
Cosmos 2084 4.2 01:06:03 10° SW 01:10:06 56° NW 01:14:16 10° NNE
Intercosmos 24 4.2 01:07:02 10° SSW 01:10:42 61° W 01:14:17 10° N
SJ-6B 3.7 01:07:13 10° S 01:10:59 49° W 01:14:52 10° NNW
Meteor 2-17 Rocket 4.5 01:05:02 10° N 01:11:11 68° E 01:17:16 10° SSE
Cosmos 1354 Rocket 4.5 01:06:52 10° SSW 01:12:02 65° WNW 01:17:17 10° NNE
CZ-4C R/B 3.3 01:05:35 10° NNW 01:12:48 57° NE 01:19:33 16° SE
ATLAS 5 CENTAUR R/B 2.6 01:07:50 10° NW 01:13:40 73° WSW 01:19:48 13° SSE
Cosmos 1151 Rocket 3.0 01:11:31 10° S 01:15:51 75° E 01:20:13 10° NNE
USA 305 4.3 01:14:31 10° NW 01:18:19 30° NNE 01:21:35 13° E
NOSS 3-3 (A) 4.3 01:14:25 10° SW 01:20:03 67° NW 01:26:29 10° NNE
NOSS 3-3 (C) 4.3 01:14:31 10° SW 01:20:10 68° NW 01:26:35 10° NNE
SPOT 1/Viking Rocket 4.2 01:22:52 19° SE 01:26:02 38° ENE 01:30:49 10° N
ATLAS 2AS CENTAUR R/B 4.3 01:20:32 10° NNW 01:26:33 26° NE 01:32:12 10° E
IGS 5A 3.5 01:27:12 21° SSE 01:29:52 65° ENE 01:34:00 10° N
Cosmos 1709 Rocket 3.9 01:24:53 10° N 01:31:01 89° ENE 01:36:46 12° S
BREEZE M DEB (TANK) 4.1 01:27:19 10° WNW 01:31:23 23° N 01:33:31 10° NE
Cosmos 1833 Rocket 2.9 01:31:04 10° NNW 01:36:39 60° ENE 01:39:57 25° SE
USA 306 3.9 01:33:54 10° NW 01:37:56 39° NNE 01:40:20 21° E
Cosmos 1500 3.0 01:36:17 10° N 01:40:02 70° E 01:41:40 31° SSE
CZ-2C R/B 3.6 01:36:50 10° NNE 01:41:20 66° ESE 01:44:53 16° S
SPOT 3 Rocket 3.5 01:37:38 19° SSE 01:41:21 87° ENE 01:46:31 10° NNW
SWARM A 4.5 01:39:31 10° N 01:42:45 48° E 01:43:24 41° SE
Cosmos 773 Rocket 4.1 01:38:17 10° NNW 01:43:36 77° WSW 01:47:06 21° S
Cosmos 2228 Rocket 4.1 01:43:57 26° ESE 01:44:36 27° E 01:48:22 10° NNE
Resurs 01 Rocket 1.7 01:41:39 19° S 01:44:45 74° WSW 01:49:12 10° NNW
Akebono 3.9 01:42:52 10° NNW 01:44:48 70° N 01:44:48 70° N
Cosmos 1538 Rocket 4.2 01:42:20 10° NNW 01:47:39 61° ENE 01:50:14 30° SE
GPS 2-04 Rocket1 3.2 01:44:35 10° WSW 01:48:29 40° S 01:49:13 36° SSE
Meteor 1-5 Rocket 4.1 01:44:17 10° N 01:49:36 63° E 01:52:15 29° SSE
Spot 2 Rocket 3.9 01:47:58 29° SE 01:50:10 47° ENE 01:54:59 10° N
ERS-1 Rocket 3.9 01:49:56 25° ESE 01:51:42 32° ENE 01:56:07 10° N
CRYOSAT 2 4.3 01:49:10 21° S 01:52:28 87° W 01:57:23 10° N
X-37B 1.7 01:51:18 10° W 01:54:11 31° SSW 01:54:18 31° SSW
deb Kosmos-1763 4.0 01:51:28 10° NNW 01:54:59 61° ENE 01:55:36 50° ESE
Cosmos 1515 Rocket 3.5 01:53:19 21° S 01:56:16 89° W 02:00:41 10° N
Delta 2 Rocket 3.9 01:57:32 10° WSW 02:02:20 45° S 02:03:03 41° SSE
Meteor 1-10 Rocket 4.1 02:00:51 25° S 02:04:10 71° E 02:09:49 10° NNE
Cosmos 1633 Rocket 4.4 02:00:36 10° NNW 02:04:39 37° W 02:07:59 14° SSW
Cosmos 1869 Rocket 4.5 02:01:00 10° NNE 02:04:52 31° ENE 02:05:16 30° E
JB-3 4.3 02:01:28 10° NNE 02:05:15 55° E 02:05:36 53° ESE
USA 307 3.2 02:01:22 10° NW 02:05:36 57° NE 02:06:53 39° E
Cosmos 1271 Rocket 2.7 02:11:53 47° S 02:13:00 89° E 02:17:01 10° N
Terra 2.5 02:17:08 35° E 02:17:56 37° ENE 02:22:18 10° N
Cosmos 1470 Rocket 4.4 02:15:01 10° NNW 02:19:18 46° W 02:21:26 26° SSW
USA 308 2.9 02:15:03 10° NW 02:19:21 72° NE 02:20:06 57° E
Cosmos 2082 Rocket 2.2 02:15:51 10° NNW 02:21:29 70° ENE 02:23:13 44° SE
CARTOSAT-1 3.4 02:21:09 59° SSE 02:21:57 83° ENE 02:26:17 10° N
H-2A R/B 4.3 02:18:05 10° NNE 02:21:19 35° ENE 02:21:19 35° ENE
ARIANE 5 R/B 2.6 02:31:09 56° SSW 02:31:55 71° WSW 02:36:15 10° NNW
Cosmos 1933 Rocket 4.2 02:29:08 10° NNW 02:33:20 49° W 02:34:30 38° SW
COSMOS 2406 3.9 02:29:21 10° NW 02:34:44 46° WSW 02:36:56 31° SSW
SPOT 5 2.9 02:33:36 55° SSE 02:34:46 80° ENE 02:40:04 10° N
Cosmos 1898 Rocket 3.5 02:34:06 55° SE 02:34:49 61° ESE 02:40:04 10° NNE
Cosmos 1943 Rocket 2.5 02:39:12 45° ESE 02:39:12 45° ESE 02:44:24 10° NE
Cosmos 923 Rocket 3.9 02:35:03 10° NNW 02:40:21 78° ENE 02:41:15 61° SE
Cosmos 990 Rocket 3.9 02:39:27 48° SSW 02:40:56 86° ESE 02:46:14 10° NNE
SJ 16-02 3.1 02:37:13 10° SW 02:41:11 32° WNW 02:45:10 10° N
DNEPR-1 R/B 4.1 02:41:14 50° S 02:42:31 63° ESE 02:47:40 10° NE
Cosmos 2278 Rocket 3.9 02:38:14 10° WSW 02:43:14 32° WNW 02:48:15 10° N
Cosmos 1666 3.9 02:41:46 10° NNW 02:45:09 33° W 02:45:30 33° WSW
Iridium 4 Rocket 4.3 02:42:49 27° SSW 02:45:51 56° W 02:51:41 10° N
Meteor 2-12 Rocket 4.4 02:43:23 10° N 02:49:27 80° W 02:51:13 48° S
Cosmos 2369 Rocket 3.5 02:51:16 25° ENE 02:51:16 25° ENE 02:54:35 10° NE
Cosmos 1733 Rocket 4.3 02:48:33 10° NNE 02:51:43 30° NE 02:51:43 30° NE
Meteor 1-27 Rocket 4.0 02:52:26 38° SSW 02:54:42 71° W 03:00:38 10° N
USA 305 3.7 02:54:17 10° WNW 02:57:39 43° W 02:57:39 43° W
Cosmos 158 Rocket 4.4 02:55:21 10° NNW 03:00:01 46° WSW 03:00:36 44° SW
CZ-4C R/B 4.0 02:54:26 10° NW 03:01:22 38° WSW 03:04:45 28° SSW
Cosmos 1544 4.2 02:59:35 10° N 03:02:04 42° N 03:02:04 42° N
Cosmos 2084 Rocket 4.4 03:00:00 10° NNW 03:03:54 41° NE 03:03:54 41° NE
NOSS 3-4 (A) 4.1 02:57:50 10° NW 03:04:56 64° WSW 03:07:09 46° S
NOSS 3-4 (C) 4.0 02:57:57 10° NW 03:05:02 65° WSW 03:07:15 47° S
Cosmos 1340 Rocket 3.4 03:02:12 10° N 03:05:30 57° N 03:05:30 57° N
Cosmos 1238 Rocket 3.9 03:01:12 10° N 03:06:54 50° ENE 03:06:55 50° ENE
Cosmos 1743 3.7 03:03:46 10° N 03:06:30 44° N 03:06:30 44° N
Meteor 1-19 Rocket 4.4 03:12:03 51° ENE 03:12:03 51° ENE 03:16:50 10° NNE
Cosmos 2154 Rocket 4.4 03:10:40 10° NNW 03:16:48 55° W 03:18:30 42° SW
ATLAS 2AS CENTAUR R/B 2.6 03:11:08 10° NW 03:18:27 85° SW 03:19:41 63° SSE
Cosmos 2112 Rocket 4.0 03:13:33 10° NNW 03:18:55 75° WSW 03:19:01 75° WSW
Cosmos 1536 4.3 03:21:33 10° NNW 03:24:37 31° WNW 03:24:37 31° WNW
Cosmos 962 Rocket 4.3 03:20:37 10° N 03:26:45 79° W 03:27:28 69° SSW
Meteor 2-4 Rocket 4.4 03:30:52 43° ENE 03:30:52 43° ENE 03:35:31 10° NNE
ERS-1 Rocket 4.3 03:29:55 28° WSW 03:30:27 29° W 03:34:49 10° NW
Cosmos 1937 Rocket 3.9 03:33:12 51° W 03:33:46 54° WNW 03:38:51 10° N
Cosmos 1862 Rocket 4.4 03:35:48 47° N 03:35:48 47° N 03:38:55 10° N
Cosmos 1975 4.4 03:37:40 10° N 03:39:56 31° NNE 03:39:56 31° NNE
RESURS DK-1 4.3 03:44:25 10° N 03:47:03 24° NE 03:47:03 24° NE
Cosmos 2181 Rocket 4.0 03:53:39 65° WSW 03:54:11 68° W 04:00:18 10° N
Terra 3.6 03:56:01 22° W 03:56:01 22° W 03:59:28 10° NW
Milstar 3 4.3 03:48:27 10° WSW 03:56:12 32° SW 03:56:12 32° SW
Cosmos 2366 rocket 3.9 03:54:43 10° N 04:00:54 77° W 04:01:02 77° WSW
Cosmos 2082 Rocket 4.2 04:01:44 10° WNW 04:04:53 15° W 04:05:04 15° W
Cosmos 1461 4.5 04:04:50 35° WNW 04:05:09 35° NW 04:09:26 10° NNE
Cosmos 1607 3.9 04:12:57 80° W 04:13:13 82° WNW 04:19:45 10° NNE
ALOS 2 3.9 04:14:52 39° N 04:14:52 39° N 04:17:44 10° N
Cosmos 1818 4.4 04:10:08 10° NW 04:14:10 41° WNW 04:14:10 41° WNW
Centaur D AC-29 4.3 03:54:05 10° WSW 04:19:09 33° SW 04:19:09 33° SW
Cosmos 1943 Rocket 3.9 04:20:39 20° W 04:22:59 27° NW 04:27:42 10° N
SeaSat 1 4.4 04:19:22 10° NE 04:21:16 19° ENE 04:21:16 19° ENE
ATLAS CENTAUR R/B 3.7 04:30:12 18° NNE 04:30:12 18° NNE 04:31:19 10° NNE
Cosmos 2369 Rocket 3.1 04:33:00 38° WNW 04:33:39 40° WNW 04:38:57 10° N
Cosmos 1656 Rocket 4.1 04:38:22 56° NW 04:38:22 56° NW 04:43:26 10° NNE
Nadezhda 3 Rocket 3.9 04:41:02 80° NW 04:41:02 80° NW 04:47:04 10° N
BREEZE-M DEB (TANK) 3.9 04:32:18 10° WNW 04:43:38 76° N 04:43:38 76° N
Lacrosse 5 3.4 04:48:12 29° ENE 04:48:12 29° ENE 04:50:44 10° NE
Cosmos 1125 Rocket 4.1 04:54:49 51° NNW 04:54:49 51° NNW 04:59:09 10° NNE
USA 215 4.2 04:51:52 11° E 04:57:40 44° NNE 05:03:47 10° NW
Cosmos 1605 Rocket 4.4 05:00:28 10° N 05:06:37 54° E 05:06:53 53° E
Cosmos 1066 Rocket 4.5 05:08:10 64° NW 05:08:10 64° NW 05:13:14 10° N
EO 1 Delta rocket 4.4 05:18:58 69° NNE 05:18:58 69° NNE 05:24:19 10° N
Cosmos 2227 Rocket 4.4 05:20:51 10° N 05:24:57 20° NE 05:29:01 10° E
Cosmos 2297 Rocket 4.0 05:23:08 10° N 05:27:52 26° NE 05:30:43 18° E
ISS -0.4 05:30:09 10° NNW 05:31:48 13° N 05:33:27 10° NNE
USA 81 4.3 05:27:10 10° N 05:31:39 65° N 05:31:39 65° N
NOSS 2-1 (C) 4.3 05:30:59 10° NW 05:36:00 84° NNW 05:36:00 84° NNW
Cosmos 1934 Rocket 4.4 05:36:37 10° NNW 05:41:59 48° WNW 05:41:59 48° WNW
NOSS 2-1 (D) 4.4 05:37:48 10° NW 05:42:38 75° WNW 05:42:38 75° WNW
Cosmos 1656 4.4 05:45:16 42° E 05:45:16 42° E 05:49:51 10° NE
Cosmos 2344 4.5 05:43:34 10° NW 05:53:23 66° WSW 05:58:25 42° S
Cosmos 1707 4.5 05:58:22 30° NNE 05:58:22 30° NNE 06:00:31 10° NNE
Okean 1 Rocket 4.0 05:54:22 10° N 05:57:25 44° N 05:57:25 44° N
SeaSat 1 3.4 05:56:32 10° N 06:01:02 39° NW 06:01:02 39° NW
COSMOS 2455 3.1 05:57:02 10° NNW 06:03:02 66° ENE 06:04:25 51° ESE
CZ-4 R/B 4.2 06:02:41 10° N 06:06:47 61° NNW 06:06:47 61° NNW
Meteor 2-20 4.4 06:07:18 67° W 06:07:33 68° W 06:13:42 10° N
Cosmos 371 Rocket 3.8 06:10:20 55° ENE 06:10:20 55° ENE 06:14:35 10° NNE
Cosmos 1727 Rocket 3.9 06:09:20 70° WSW 06:09:46 73° W 06:16:09 10° N
Helios 1B rocket 3.8 06:08:24 10° NNE 06:11:27 35° ENE 06:11:27 35° ENE
Cosmos 2219 3.9 06:07:03 10° NNW 06:12:37 50° ENE 06:14:52 33° ESE
SL-16 R/B 3.0 06:15:31 36° SE 06:17:58 58° ENE 06:24:07 10° N
Meteor 2-10 4.5 06:18:23 10° NNW 06:22:47 49° WNW 06:22:47 49° WNW
ADEOS II 3.4 06:20:09 10° NE 06:24:43 29° E 06:25:56 27° ESE
Lacrosse 4 Rocket 2.8 06:26:20 32° E 06:26:20 32° E 06:29:48 10° NE
Lacrosse 5 3.4 06:27:22 24° WNW 06:28:59 29° NNW 06:33:25 10° NNE
Cosmos 1953 3.4 06:25:17 10° N 06:28:48 41° ENE 06:28:48 41° ENE
NPP 3.8 06:26:29 10° NNE 06:31:51 62° ESE 06:32:31 57° SE
AQUA 4.4 06:27:25 10° NNE 06:32:02 47° E 06:32:19 46° ESE
CZ-2D R/B 2.0 06:27:14 10° NNE 06:32:39 77° ESE 06:33:07 71° SSE
Cosmos 1455 Rocket 3.3 06:32:23 10° N 06:36:33 64° ENE 06:36:33 64° ENE
Resurs 1-4 Rocket 1.9 06:33:31 10° NNE 06:38:48 90° ESE 06:39:15 76° SSW
USA 215 3.2 06:39:06 51° S 06:40:30 62° SW 06:46:59 10° NW
MOZ.5/SAFIR/RUBIN 5/SL-8 4.4 06:42:26 44° WNW 06:42:26 44° WNW 06:46:03 10° NNW
Cosmos 1725 Rocket 4.3 06:35:58 10° N 06:42:09 62° E 06:44:56 33° SSE
Cosmos 2360 4.5 06:42:06 51° SSE 06:43:07 59° ESE 06:48:45 10° NNE
Cosmos 1697 Rocket 2.7 06:42:23 61° SSE 06:43:11 70° ESE 06:48:46 10° NNE
Meteor 1-29 4.3 06:42:11 10° NNE 06:44:36 36° ENE 06:44:36 36° ENE
Cosmos 1459 Rocket 3.9 06:40:14 10° NNW 06:46:27 71° W 06:47:34 58° SSW
Meteor 1-16 Rocket 4.4 06:41:34 10° N 06:47:31 76° E 06:49:29 43° SSE
Cosmos 1674 3.2 06:50:39 55° N 06:50:39 55° N 06:53:43 10° N
Cosmos 1726 4.4 06:47:39 10° NNW 06:48:44 16° NW 06:48:44 16° NW
USA 281 3.1 06:49:16 49° S 06:50:57 66° WSW 06:57:31 10° NNW
GP-B 4.5 06:47:47 10° NNE 06:51:50 33° E 06:53:21 26° SE
Cosmos 1980 Rocket 2.9 06:54:10 35° SSE 06:55:51 45° ESE 07:01:14 10° NE
Cosmos 2016 Rocket 3.9 06:50:04 10° N 06:56:21 88° W 06:58:27 44° S
Meteor 2-11 Rocket 4.3 06:51:04 10° N 06:57:14 75° W 06:58:54 50° SSW
SL-14 R/B 4.2 06:59:18 39° ESE 06:59:43 41° E 07:03:28 10° NNE
Cosmos 2173 Rocket 4.2 06:56:40 10° NNW 07:02:38 51° W 07:03:45 46° SW
Cosmos 2061 Rocket 3.9 06:59:50 10° N 07:06:12 79° W 07:08:42 40° S
Timation 2 Rocket 3.8 07:00:32 10° NNW 07:06:27 65° WSW 07:08:17 44° S
Cosmos 1626 2.2 07:07:59 74° NNE 07:07:59 74° NNE 07:11:24 10° N
Cosmos 1975 Rocket 3.8 07:08:32 37° WNW 07:08:32 37° WNW 07:12:17 10° N
Cosmos 2227 Rocket 2.1 07:03:54 10° NNW 07:09:30 65° WSW 07:10:57 47° SSW
TSX-5 4.1 07:05:56 10° NNW 07:08:44 53° NW 07:08:44 53° NW
ISS -1.1 07:06:51 10° NNW 07:09:34 22° NNE 07:12:16 10° ENE
UNK 3.9 07:11:24 51° W 07:11:24 51° W 07:15:45 10° NNW
Cosmos 1315 Rocket 4.3 07:08:08 10° NNW 07:10:25 25° WNW 07:10:25 25° WNW
Cosmos 2297 Rocket 2.4 07:06:42 10° NW 07:12:06 46° WSW 07:12:28 46° WSW
Cosmos 2285 Rocket 4.3 07:10:17 34° S 07:13:08 64° ESE 07:19:30 10° NNE
Cosmos 304 Rocket 3.8 07:13:22 55° WSW 07:14:02 61° WNW 07:18:48 10° NNE
Cosmos 2056 Rocket 3.5 07:13:38 45° S 07:15:06 70° ESE 07:20:12 10° NNE
DELTA 2 DEB (DPAF) 4.3 07:14:05 36° SSE 07:15:51 72° ENE 07:20:18 10° N
Cosmos 2369 3.6 07:14:44 47° SSW 07:16:30 84° WNW 07:22:16 10° NNE
Cosmos 2278 4.0 07:15:39 35° S 07:17:55 61° ESE 07:23:32 10° NNE
ARGOS Delta rocket 3.8 07:14:18 10° N 07:18:58 67° WNW 07:20:01 51° SW
SL-19 R/B 4.4 07:15:35 10° N 07:21:01 57° WNW 07:22:32 42° WSW
Cosmos 1023 Rocket 4.5 07:16:56 10° NNW 07:22:12 83° ENE 07:25:58 19° SSE
Cosmos 1300 3.6 07:19:24 10° N 07:23:06 46° E 07:24:55 26° SE
Cosmos 2082 3.7 07:19:28 10° NNW 07:25:12 87° ENE 07:30:55 10° SSE
Cosmos 1371 Rocket 3.9 07:26:14 44° SSW 07:27:54 79° WNW 07:33:08 10° NNE
OAO 2 Rocket 3.9 07:29:24 39° S 07:30:04 41° S 07:35:02 10° ESE
SL-16 R/B 4.1 07:27:01 10° SSE 07:31:26 24° ESE 07:35:52 10° NE
Cosmos 1025 Rocket 3.6 07:31:57 39° W 07:32:22 40° WNW 07:36:32 10° N
Cosmos 2123 Rocket 4.5 07:33:54 32° WSW 07:35:59 42° WNW 07:41:51 10° N
IRS-1D 3.6 07:33:12 10° N 07:38:33 72° WNW 07:40:55 34° SSW
Cosmos 1140 Rocket 3.4 07:34:43 10° NNW 07:39:55 71° WSW 07:43:34 20° S
Iridium 2 3.6 07:42:04 51° SW 07:42:51 68° W 07:46:39 10° N
IDEFIX/ARIANE 42P 2.6 07:40:24 10° NNE 07:45:42 83° ESE 07:48:54 25° S
Helios 1B rocket 4.3 07:44:30 10° NNW 07:47:12 17° WNW 07:47:45 17° WNW
COSMOS 2455 4.3 07:44:16 10° WNW 07:47:29 19° W 07:47:29 19° W
Cosmos 1340 2.5 07:49:44 40° SSW 07:51:00 84° W 07:54:46 10° N
Meteor 1-28 Rocket 3.3 07:53:43 40° SW 07:54:36 50° W 07:58:13 10° NNW
IUS-18 SRM-1 4.5 07:55:12 15° S 07:55:42 15° SSE 07:59:19 10° SE
Cosmos 2219 4.4 07:52:02 10° NW 07:56:23 23° W 07:56:43 23° WSW
Meteor 2-10 Rocket 4.2 07:52:39 10° N 07:58:18 61° ENE 08:03:43 10° SSE
Cosmos 2322 Rocket 3.7 07:53:44 10° SSE 07:58:39 31° ESE 08:03:36 10° NE
SL-16 R/B 3.7 08:00:36 21° WSW 08:01:54 23° W 08:06:42 10° NW
NOSS 3-2 (A) 4.1 08:00:10 15° S 08:04:22 44° ESE 08:10:09 10° NE
ADEOS II 3.0 07:59:41 10° N 08:04:23 34° WNW 08:06:52 22° WSW
Lacrosse 4 Rocket 3.0 08:02:37 19° W 08:04:31 26° NW 08:08:14 10° N
Cosmos 2263 Rocket 2.7 07:59:07 10° NNW 08:04:44 62° ENE 08:10:21 10° SE
Cosmos 1953 4.4 08:03:11 10° WNW 08:04:27 13° WNW 08:04:27 13° WNW
Cosmos 1190 Rocket 4.2 08:00:06 10° NNW 08:05:07 49° WSW 08:09:34 13° S
Meteor 1-24 Rocket 3.6 08:01:32 22° SSW 08:05:14 70° W 08:10:39 10° N
ARIANE 5 R/B 2.6 08:00:17 10° NNE 08:05:26 75° ESE 08:09:44 14° S
IRS-P3 4.1 08:00:12 10° NNE 08:05:34 86° WNW 08:09:39 18° SSW
Cosmos 1420 Rocket 4.1 08:07:40 24° SW 08:10:44 58° WNW 08:15:52 10° NNE
Cosmos 1726 Rocket 4.2 08:06:53 10° N 08:11:13 57° E 08:15:32 10° SSE
Cosmos 1606 Rocket 3.7 08:06:53 10° N 08:11:18 75° E 08:15:43 10° SSE
CZ-2D R/B 4.1 08:09:05 10° NNW 08:11:59 15° WNW 08:14:26 11° W
Cosmos 2228 2.9 08:09:01 10° N 08:13:19 85° W 08:17:37 10° S
Lacrosse 5 4.4 08:11:06 10° NW 08:13:30 13° N 08:15:55 10° NNE
CZ-4B R/B 3.5 08:11:05 10° NNE 08:16:06 82° WNW 08:20:30 14° SSW
Resurs 1-4 Rocket 4.2 08:15:47 10° NW 08:17:50 12° WNW 08:19:53 10° W
USA 238 DEB 4.4 08:12:03 10° S 08:18:11 46° ESE 08:24:36 10° NE
USA 238 4.4 08:12:11 10° S 08:18:18 46° ESE 08:24:41 10° NE
ADEOS Rocket 3.8 08:12:28 10° S 08:19:28 47° W 08:26:55 10° NNW
Cosmos 2360 Rocket 4.0 08:16:45 10° SSE 08:21:25 27° ESE 08:26:07 10° NE
Cosmos 1513 Rocket 4.4 08:18:25 10° N 08:24:37 82° W 08:30:42 10° S
Meteor 2-5 Rocket 4.4 08:21:35 18° SW 08:25:12 38° WNW 08:30:25 10° N
Cosmos 1697 Rocket 4.4 08:24:06 11° W 08:27:42 19° NW 08:31:35 10° N
Cosmos 676 Rocket 4.2 08:23:56 10° NNW 08:29:00 50° WSW 08:34:06 10° S
Cosmos 1464 Rocket 3.9 08:23:52 10° N 08:30:03 81° W 08:36:17 10° S
Atlas Centaur 2 3.8 08:28:29 14° SSW 08:33:20 26° SSE 08:38:28 10° ESE
Cosmos 405 3.7 08:32:13 10° NNW 08:35:23 32° W 08:38:01 13° SSW
Cosmos 292 Rocket 4.0 08:32:03 15° SW 08:35:57 56° WNW 08:40:46 10° N
Aureole 2 Rocket 2.3 08:35:29 10° NW 08:37:59 35° WSW 08:40:28 10° S
Cosmos 1980 Rocket 3.4 08:35:56 13° WSW 08:40:01 27° NW 08:44:49 10° N
CENTAUR R/B 2.9 08:34:42 10° SSW 08:40:13 57° ESE 08:46:46 10° NE
Cosmos 2034 Rocket 4.1 08:33:55 10° N 08:40:18 86° E 08:46:35 10° S
Cosmos 2227 4.2 08:40:30 10° NNW 08:46:08 69° WSW 08:51:42 10° SSE
ISS -3.8 08:43:17 10° WNW 08:46:40 71° SW 08:50:01 10° SE
PAYLOAD A 3.8 08:45:02 10° NNE 08:49:46 86° WNW 08:54:27 10° SSW
Cosmos 1331 Rocket 4.1 08:48:46 10° SSW 08:53:53 79° ESE 08:59:05 10° NNE
Cosmos 1452 Rocket 4.0 08:49:49 10° SW 08:54:47 44° WNW 08:59:51 10° N
Aureole 1 Rocket 3.0 08:52:31 10° NNW 08:56:00 74° ENE 09:00:23 10° SSE
CZ-2D R/B 4.2 08:52:53 10° N 08:57:02 41° WNW 09:01:12 10° SW
Cosmos 1184 Rocket 3.9 08:56:13 10° S 08:59:16 45° E 09:02:21 10° NNE
FENGYUN 3A 4.0 08:57:46 10° NNE 09:03:10 73° ESE 09:08:32 10° S
Spot 4 Rocket 4.4 09:01:16 10° N 09:06:13 49° WNW 09:11:08 10° SW
CZ-2C R/B 2.6 09:01:11 10° N 09:06:18 66° WNW 09:11:26 10° SSW
ASTEX 1 4.4 09:02:43 10° SSE 09:07:32 53° E 09:12:23 10° N
Cosmos 1346 Rocket 3.7 09:04:47 10° SW 09:08:17 31° WNW 09:11:48 10° N
Cosmos 389 Rocket 2.7 09:05:47 10° NNW 09:09:10 49° W 09:12:30 10° S
PSLV R/B 3.6 09:05:03 10° NNE 09:09:16 82° ESE 09:13:28 10° S
ALOS 2.4 09:07:04 10° NNE 09:11:46 82° ESE 09:16:25 10° S
